Weather History for Jefferson City, MO

Change the Weather History Date:

Tuesday, January 15, 2013

  Actual Average Record
Temperature  
Mean Temperature 21 °F -  
Max Temperature 30 °F 39 °F 66 °F (1949)
Min Temperature 12 °F 17 °F -13 °F (1979)
Degree Days  
Heating Degree Days 44    
Moisture  
Dew Point 13 °F    
Average Humidity 68    
Maximum Humidity 80    
Minimum Humidity 47    
Precipitation  
Precipitation 0.03 in - - ()
Sea Level Pressure  
Sea Level Pressure 30.32 in    
Wind  
Wind Speed 1 mph (ENE)    
Max Wind Speed 8 mph    
Max Gust Speed -    
Visibility 10 miles    
Events      
Averages and records for this station are not official NWS values.
T = Trace of Precipitation, MM = Missing Value Source: NWS Daily Summary

Daily Weather History Graph

Daily Weather History Graph

Search for Another Location

Airport:

Trip Planner

Search our weather history database for the weather conditions in past years. The results will help you decide how hot, cold, wet, or windy it might be!

Date:

Astronomy

Jan. 15, 2013 Rise Set
Actual Time 7:24 AM CST 5:11 PM CST
Civil Twilight 6:55 AM CST 5:40 PM CST
Nautical Twilight 6:23 AM CST 6:13 PM CST
Astronomical Twilight 5:51 AM CST 6:45 PM CST
Moon 9:34 AM CST (1/15) 9:58 PM CST (1/15)
Length of Visible Light 10h 45m
Length of Day
9h 47m
Waxing Crescent, 19% of the Moon is Illuminated
Jan 15
Waxing Crescent
Jan 18
First Quarter
Jan 26
Full
Feb 3
Last Quarter
Feb 10
New

Hourly Weather History & Observations

Time (CST) Temp. Windchill Dew Point Humidity Pressure Visibility Wind Dir Wind Speed Gust Speed Precip Events Conditions
12:53 AM 16.0 °F - 9.0 °F 74% 30.42 in 10.0 mi Calm Calm - N/A   Clear
1:53 AM 16.0 °F - 10.0 °F 77% 30.41 in 10.0 mi Calm Calm - N/A   Clear
2:53 AM 14.0 °F - 9.0 °F 80% 30.41 in 10.0 mi Calm Calm - N/A   Clear
3:53 AM 14.0 °F - 9.0 °F 80% 30.38 in 10.0 mi Calm Calm - N/A   Clear
4:53 AM 12.9 °F - 7.0 °F 77% 30.37 in 10.0 mi Calm Calm - N/A   Clear
6:53 AM 12.0 °F - 7.0 °F 80% 30.40 in 10.0 mi Calm Calm - N/A   Clear
7:53 AM 12.9 °F - 7.0 °F 77% 30.40 in 9.0 mi Calm Calm - N/A   Clear
8:53 AM 15.1 °F - 10.0 °F 80% 30.36 in 9.0 mi Calm Calm - N/A   Clear
9:53 AM 21.0 °F 16.2 °F 15.1 °F 78% 30.37 in 10.0 mi ESE 3.5 mph - N/A   Clear
10:53 AM 21.9 °F 12.5 °F 15.1 °F 75% 30.39 in 10.0 mi ESE 8.1 mph - N/A   Mostly Cloudy
11:53 AM 25.0 °F - 15.1 °F 66% 30.34 in 10.0 mi Calm Calm - N/A   Mostly Cloudy
12:53 PM 27.0 °F 23.0 °F 12.0 °F 53% 30.30 in 10.0 mi NE 3.5 mph - N/A   Partly Cloudy
1:53 PM 28.0 °F 20.0 °F 14.0 °F 56% 30.29 in 10.0 mi SE 8.1 mph - 0.01 in   Scattered Clouds
2:53 PM 28.9 °F 22.8 °F 12.0 °F 49% 30.27 in 10.0 mi ENE 5.8 mph - 0.01 in   Mostly Cloudy
3:53 PM 30.9 °F 26.2 °F 12.9 °F 47% 30.26 in 10.0 mi ENE 4.6 mph - 0.01 in   Mostly Cloudy
4:53 PM 30.9 °F - 12.9 °F 47% 30.24 in 10.0 mi Calm Calm - N/A   Overcast
5:53 PM 30.0 °F 24.1 °F 17.1 °F 59% 30.24 in 10.0 mi North 5.8 mph - N/A   Overcast
6:53 PM 28.9 °F - 17.1 °F 61% 30.24 in 10.0 mi Calm Calm - N/A   Overcast
7:53 PM 28.0 °F 24.2 °F 18.0 °F 66% 30.23 in 10.0 mi NW 3.5 mph - N/A   Overcast
8:53 PM 28.0 °F - 17.1 °F 63% 30.21 in 10.0 mi Calm Calm - N/A   Overcast
10:53 PM 23.0 °F - 17.1 °F 78% 30.18 in 10.0 mi Calm Calm - N/A   Clear